Location: Newark
(16.3678°N, 77.8722°E)
Time: 23:03:22
(UTC+00:00)

S-56A Canister/Altair - Pass Details

Date: 19 December 2019
Orbit: 634 x 2498 km, 38.9° (Epoch: 22 January)

Event Time Altitude Azimuth Distance (km) Brightness Sun altitude
Rises 03:06:39 0° 278° (W) 4,840 11.1 23.4°
Reaches altitude 10° 03:10:06 10° 289° (WNW) 4,117 10.8 24.1°
Maximum altitude 03:20:00 31° 347° (NNW) 3,314 10.6 26.0°
Drops below altitude 10° 03:32:21 10° 44° (NE) 5,128 11.9 28.3°
Sets 03:37:21 0° 54° (NE) 6,174 12.3 29.3°
